Regional Weather Roundup
Issued by NWS

Home | Current Version | Previous Version | Text Only | Print | Product List | Glossary On
Versions: 1 2 3 4 5 6 7 8 9 10 11 12 13 14 15 16 17 18 19 20 21 22 23 24 25 26 27 28 29 30 31 32 33 34 35 36 37 38 39 40 41 42 43 44 45 46 47 48 49 50
000
ASUS43 KLSX 050107
RWRMO

WEATHER SUMMARY FOR MISSOURI
NATIONAL WEATHER SERVICE SPRINGFIELD MO
800 PM CDT FRI SEP 04 2015

NOTE: "FAIR" INDICATES FEW OR NO CLOUDS BELOW 12,000 FEET WITH NO
       SIGNIFICANT WEATHER AND/OR OBSTRUCTIONS TO VISIBILITY.
       CURRENT SKY AND/OR WEATHER CONDITIONS ARE NOT AVAILABLE FOR
       CHILLICOTHE AND FARMINGTON.

MOZ001>031-035>038-043-044-053-054-050200-
...NORTHERN AND WESTERN MISSOURI...

CITY           SKY/WX    TMP DP  RH WIND       PRES   REMARKS
KANSAS CTY INT PTCLDY    79  68  69 S9        29.95R
KANSAS C DTWN  CLEAR     86  66  51 S10       29.94R
LEE`S SUMMIT   CLEAR     83  66  56 S6        29.96S
ST JOSEPH      CLEAR     80  69  69 S7        29.92S
CHILLICOTHE      N/A     82  70  66 CALM      29.96R
KIRKSVILLE     CLEAR     81  69  67 S5        29.98S

$$
MOZ066>068-077>081-088>096-101>105-050200-
...SOUTHWEST MISSOURI...

CITY           SKY/WX    TMP DP  RH WIND       PRES   REMARKS
SPRINGFIELD    CLEAR     81  68  64 SE7       30.00S
JOPLIN         CLEAR     83  69  62 SE3       29.97S

$$
MOZ032>034-039>042-045>050-055>058-069>072-050200-
...CENTRAL MISSOURI...

CITY           SKY/WX    TMP DP  RH WIND       PRES   REMARKS
COLUMBIA       CLEAR     81  73  76 S6        29.99S
JEFFERSON CITY PTCLDY    85  70  60 CALM      29.97S
ROLLA          CLEAR     80  70  71 S5        30.00S
SEDALIA        CLEAR     81  70  69 S6        29.99S
WHITEMAN AFB   CLEAR     81  69  67 S6        29.96S
WARRENSBURG    CLEAR     82  68  61 S3        29.96S
OSAGE BEACH    CLEAR     82  66  57 SE3       30.00S

$$
MOZ051-052-059>065-050200-
...EAST CENTRAL MISSOURI...

CITY           SKY/WX    TMP DP  RH WIND       PRES   REMARKS
ST LOUIS INTL  MOCLDY    89  68  49 S5        29.99S HX  93
SPIRIT OF STL  PTCLDY    78  73  84 CALM      29.98R
ST CHARLES     PTCLDY    84  74  71 CALM      29.97S HX  91

$$
MOZ072>076-082>087-097>100-106>115-050200-
...SOUTH CENTRAL AND SOUTHEAST MISSOURI...

CITY           SKY/WX    TMP DP  RH WIND       PRES   REMARKS
CAPE GIRARDEAU CLEAR     80  72  76 CALM      29.99R
FARMINGTON     CLEAR     81  72  74 CALM      30.04S
POPLAR BLUFF   CLEAR     78  75  90 CALM      29.98R
WEST PLAINS    CLEAR     80  70  71 CALM      30.04R

$$



USA.gov is the U.S. government's official web portal to all federal, state and local government web resources and services.